Weather History for Findlay, OH

Change the Weather History Date:

Wednesday, November 3, 2010

  Actual Average Record
Temperature  
Mean Temperature - -  
Max Temperature - 53 °F 75 °F (1987)
Min Temperature - 37 °F 18 °F (1951)
Moisture  
Dew Point -    
Average Humidity    
Maximum Humidity    
Minimum Humidity    
Precipitation  
Precipitation 0.00 in - - ()
Wind  
Wind Speed - (North)    
Max Wind Speed -    
Max Gust Speed -    
Averages and records for this station are not official NWS values.
T = Trace of Precipitation, MM = Missing Value Source: NWS Daily Summary

Daily Weather History Graph

Daily Weather History Graph

Search for Another Location

Airport:

Trip Planner

Search our weather history database for the weather conditions in past years. The results will help you decide how hot, cold, wet, or windy it might be!

Date:

Astronomy

Nov. 03, 2010 Rise Set
Actual Time 8:07 AM EDT 6:28 PM EDT
Civil Twilight 7:39 AM EDT 6:56 PM EDT
Nautical Twilight 7:06 AM EDT 7:29 PM EDT
Astronomical Twilight 6:34 AM EDT 8:01 PM EDT
Moon 5:04 AM EDT (11/3) 4:38 PM EDT (11/3)
Length of Visible Light 11h 17m
Length of Day
10h 20m
Waning Crescent, 9% of the Moon is Illuminated
Nov 3
Waning Crescent
Nov 6
New
Nov 13
First Quarter
Nov 21
Full
Nov 28
Last Quarter

Hourly Weather History & Observations

Time (EDT) Temp. Windchill Dew Point Humidity Pressure Visibility Wind Dir Wind Speed Gust Speed Precip Events Conditions
12:53 AM 34.0 °F 31.0 °F 30.9 °F 89% 30.24 in 8.0 mi North 3.5 mph - N/A   Clear
1:53 AM 30.9 °F - 28.0 °F 89% 30.23 in 3.0 mi Calm Calm - N/A   Clear
2:53 AM 27.0 °F - 26.1 °F 96% 30.21 in 2.0 mi Calm Calm - N/A   Clear
3:00 AM 26.6 °F - 26.6 °F 100% 30.20 in 1.2 mi Calm Calm - N/A   Clear
3:06 AM 28.4 °F - 26.6 °F 93% 30.20 in 3.0 mi Calm Calm - N/A   Clear
3:38 AM 26.6 °F - 24.8 °F 93% 30.19 in 2.0 mi Calm Calm - N/A   Clear
3:50 AM 28.4 °F - 24.8 °F 86% 30.19 in 4.0 mi Calm Calm - N/A   Clear
3:53 AM 27.0 °F - 25.0 °F 92% 30.20 in 3.0 mi Calm Calm - N/A   Clear
4:02 AM 24.8 °F - 21.2 °F 86% 30.18 in 1.8 mi Calm Calm - N/A   Partly Cloudy
4:07 AM 26.6 °F - 23.0 °F 86% 30.18 in 0.8 mi Calm Calm - N/A   Mist
4:15 AM 24.8 °F - 23.0 °F 93% 30.18 in 0.8 mi Calm Calm - N/A   Scattered Clouds
4:21 AM 24.8 °F - 23.0 °F 93% 30.17 in 1.0 mi Calm Calm - N/A   Mostly Cloudy
4:26 AM 26.6 °F - 23.0 °F 86% 30.17 in 0.8 mi Calm Calm - N/A   Mostly Cloudy
4:48 AM 24.8 °F - 24.8 °F 100% 30.17 in 0.8 mi Calm Calm - N/A   Overcast
4:53 AM 24.1 °F - 23.0 °F 96% 30.18 in 0.8 mi Calm Calm - N/A   Overcast
5:01 AM 24.8 °F - 21.2 °F 86% 30.16 in 2.5 mi Calm Calm - N/A   Mostly Cloudy
5:08 AM 24.8 °F - 21.2 °F 86% 30.16 in 5.0 mi Calm Calm - N/A   Mostly Cloudy
5:17 AM 24.8 °F - 21.2 °F 86% 30.16 in 4.0 mi Calm Calm - N/A   Partly Cloudy
5:20 AM 24.8 °F - 21.2 °F 86% 30.16 in 1.8 mi Calm Calm - N/A   Partly Cloudy
5:30 AM 24.8 °F - 21.2 °F 86% 30.15 in 3.0 mi Calm Calm - N/A   Clear
5:53 AM 23.0 °F 18.4 °F 21.0 °F 92% 30.17 in 4.0 mi South 3.5 mph - N/A   Clear
6:46 AM 23.0 °F - 19.4 °F 86% 30.15 in 3.0 mi Calm Calm - N/A   Scattered Clouds
6:49 AM 21.2 °F - 19.4 °F 93% 30.15 in 2.5 mi Calm Calm - N/A   Mostly Cloudy
6:53 AM 21.9 °F 17.2 °F 19.9 °F 92% 30.16 in 1.8 mi SSW 3.5 mph - N/A   Mostly Cloudy
7:11 AM 21.2 °F 16.4 °F 19.4 °F 93% 30.15 in 0.2 mi SSW 3.5 mph - N/A Fog Light Freezing Fog
7:33 AM 23.0 °F - 21.2 °F 93% 30.14 in 0.2 mi Calm Calm - N/A Fog Light Freezing Fog
7:53 AM 23.0 °F - 21.0 °F 92% 30.16 in 0.2 mi Calm Calm - N/A Fog Light Freezing Fog
8:53 AM 24.1 °F - 21.9 °F 91% 30.15 in 0.2 mi Calm Calm - N/A Fog Light Freezing Fog
9:26 AM 26.6 °F - 26.6 °F 100% 30.13 in 0.8 mi Calm Calm - N/A   Overcast
9:44 AM 28.4 °F - 26.6 °F 93% 30.12 in 0.2 mi Calm Calm - N/A Fog Light Freezing Fog
9:53 AM 30.0 °F - 28.0 °F 92% 30.13 in 1.2 mi Calm Calm - N/A   Mostly Cloudy
10:00 AM 30.2 °F - 28.4 °F 93% 30.11 in 1.8 mi Calm Calm - N/A   Scattered Clouds
10:19 AM 33.8 °F - 32.0 °F 93% 30.10 in 2.5 mi Calm Calm - N/A   Clear
10:31 AM 35.6 °F - 33.8 °F 93% 30.10 in 4.0 mi Calm Calm - N/A   Clear
10:53 AM 37.9 °F - 35.1 °F 89% 30.10 in 8.0 mi Calm Calm - N/A   Clear
11:53 AM 46.0 °F - 32.0 °F 58% 30.07 in 10.0 mi Calm Calm - N/A   Clear
12:53 PM 50.0 °F - 28.0 °F 43% 30.02 in 10.0 mi SSW 3.5 mph - N/A   Clear
1:53 PM 51.1 °F - 28.0 °F 41% 29.99 in 10.0 mi Variable 6.9 mph - N/A   Clear
2:53 PM 51.1 °F - 27.0 °F 39% 29.96 in 6.0 mi West 8.1 mph - N/A   Haze
3:08 PM 51.8 °F - 28.4 °F 41% 29.95 in 2.5 mi WNW 8.1 mph - N/A   Haze
3:16 PM 50.0 °F - 28.4 °F 43% 29.94 in 4.0 mi NW 6.9 mph - N/A   Haze
3:43 PM 50.0 °F - 26.6 °F 40% 29.93 in 2.5 mi WNW 4.6 mph - N/A   Haze
3:50 PM 50.0 °F - 26.6 °F 40% 29.92 in 3.0 mi WNW 6.9 mph - N/A   Haze
3:53 PM 50.0 °F - 27.0 °F 41% 29.93 in 3.0 mi WNW 5.8 mph - N/A   Haze
4:53 PM 48.9 °F - 28.0 °F 44% 29.92 in 4.0 mi West 4.6 mph - N/A   Haze
5:53 PM 48.0 °F - 28.0 °F 46% 29.91 in 9.0 mi NNW 5.8 mph - N/A   Mostly Cloudy
6:53 PM 46.0 °F 43.9 °F 30.9 °F 56% 29.88 in 10.0 mi SSE 4.6 mph - N/A   Overcast
7:53 PM 45.0 °F 42.6 °F 34.0 °F 65% 29.87 in 10.0 mi SSE 4.6 mph - 0.00 in Rain Light Rain
8:53 PM 45.0 °F - 33.1 °F 63% 29.86 in 10.0 mi Calm Calm - 0.00 in   Overcast
9:53 PM 43.0 °F 41.3 °F 34.0 °F 71% 29.84 in 10.0 mi South 3.5 mph - N/A   Mostly Cloudy
10:53 PM 43.0 °F - 33.1 °F 68% 29.83 in 10.0 mi Calm Calm - N/A   Mostly Cloudy
11:53 PM 43.0 °F - 33.1 °F 68% 29.80 in 10.0 mi Calm Calm - N/A   Overcast